Saint Simons Island, GA

11:11 PM EST on February 12, 2016 (GMT -0500)
McKinnon

Weather History for KSSI - May, 2014

Change the Weather History Date:

Sunday, May 18, 2014

  Actual Average Record
Temperature  
Mean Temperature 69 °F 75 °F  
Max Temperature 80 °F 83 °F 95 °F (1995)
Min Temperature 58 °F 68 °F 54 °F (1984)
Degree Days  
Heating Degree Days 0 0  
Month to date heating degree days 1 2  
Since 1 July heating degree days 1494 1486  
Cooling Degree Days 4 10  
Month to date cooling degree days 144 145  
Year to date cooling degree days 282 288  
Growing Degree Days 20 (Base 50)    
Moisture  
Dew Point 56 °F    
Average Humidity 63    
Maximum Humidity 93    
Minimum Humidity 33    
Precipitation  
Precipitation 0.00 in 0.05 in 1.02 in (2003)
Month to date precipitation 1.47 0.91  
Year to date precipitation 18.41 13.97  
Snow  
Snow 0.00 in - 0.00 in ()
Month to date snowfall 0.0  
Since 1 July snowfall T  
Snow Depth 0.00 in    
Sea Level Pressure  
Sea Level Pressure 30.18 in    
Wind  
Wind Speed 6 mph (South)    
Max Wind Speed 16 mph    
Max Gust Speed 22 mph    
Visibility 10 miles    
Events      
T = Trace of Precipitation, MM = Missing Value Source: NWS Daily Summary

Daily Weather History Graph

Daily Weather History Graph

Search for Another Location

Airport or City:

Trip Planner

Search our weather history database for the weather conditions in past years. The results will help you decide how hot, cold, wet, or windy it might be!

Date:

Astronomy

May. 18, 2014 Rise Set
Actual Time 6:28 AM EDT 8:16 PM EDT
Civil Twilight 6:01 AM EDT 8:43 PM EDT
Nautical Twilight 5:29 AM EDT 9:15 PM EDT
Astronomical Twilight 4:55 AM EDT 9:49 PM EDT
Moon No Moon Rise 10:12 AM EDT (5/18)
Length of Visible Light 14h 41m
Length of Day
13h 48m
Waning Gibbous, 81% of the Moon is Illuminated
May 18
Waning Gibbous
May 21
Last Quarter
May 28
New
Jun 5
First Quarter
Jun 13
Full

Hourly Weather History & Observations

Time (EDT) Temp. Dew Point Humidity Pressure Visibility Wind Dir Wind Speed Gust Speed Precip Events Conditions
12:53 AM 66.9 °F 52.0 °F 59% 30.19 in 10.0 mi SSE 5.8 mph - N/A   Clear
1:53 AM 66.9 °F 53.1 °F 61% 30.18 in 10.0 mi South 4.6 mph - N/A   Clear
2:53 AM 64.0 °F 53.1 °F 67% 30.18 in 10.0 mi Calm Calm - N/A   Clear
3:53 AM 61.0 °F 54.0 °F 78% 30.18 in 10.0 mi Calm Calm - N/A   Clear
4:53 AM 60.1 °F 54.0 °F 80% 30.18 in 10.0 mi Calm Calm - N/A   Clear
5:53 AM 59.0 °F 55.9 °F 90% 30.18 in 10.0 mi Calm Calm - N/A   Clear
6:53 AM 59.0 °F 57.0 °F 93% 30.19 in 10.0 mi Calm Calm - N/A   Clear
7:53 AM 64.9 °F 57.9 °F 78% 30.19 in 10.0 mi West 5.8 mph - N/A   Clear
8:53 AM 68.0 °F 55.0 °F 63% 30.20 in 10.0 mi West 6.9 mph - N/A   Clear
9:53 AM 71.1 °F 55.0 °F 57% 30.21 in 10.0 mi WSW 6.9 mph - N/A   Clear
10:53 AM 73.9 °F 54.0 °F 50% 30.21 in 10.0 mi SSW 6.9 mph - N/A   Clear
11:53 AM 77.0 °F 50.0 °F 39% 30.21 in 10.0 mi WSW 5.8 mph - N/A   Clear
12:53 PM 80.1 °F 48.9 °F 34% 30.20 in 10.0 mi NW 8.1 mph - N/A   Clear
1:53 PM 78.1 °F 54.0 °F 43% 30.18 in 10.0 mi SE 11.5 mph - N/A   Clear
2:53 PM 78.1 °F 55.0 °F 45% 30.17 in 10.0 mi ESE 11.5 mph - N/A   Clear
3:53 PM 77.0 °F 54.0 °F 45% 30.16 in 10.0 mi SE 13.8 mph - N/A   Clear
4:53 PM 75.9 °F 57.0 °F 52% 30.15 in 10.0 mi SSE 11.5 mph - N/A   Clear
5:53 PM 75.0 °F 57.9 °F 55% 30.14 in 10.0 mi South 11.5 mph 21.9 mph N/A   Clear
6:53 PM 73.9 °F 57.9 °F 57% 30.14 in 10.0 mi SSE 8.1 mph 17.3 mph N/A   Clear
7:53 PM 73.0 °F 59.0 °F 61% 30.14 in 10.0 mi SSE 9.2 mph - N/A   Clear
8:53 PM 72.0 °F 62.1 °F 71% 30.15 in 10.0 mi South 8.1 mph - N/A   Clear
9:53 PM 72.0 °F 62.1 °F 71% 30.16 in 10.0 mi South 5.8 mph - N/A   Partly Cloudy
10:53 PM 70.0 °F 63.0 °F 78% 30.17 in 10.0 mi Calm Calm - N/A   Clear
11:53 PM 69.1 °F 63.0 °F 81% 30.17 in 10.0 mi Calm Calm - N/A   Scattered Clouds